DW7628 Caltanissetta IT current weather conditions

sailwx.info

Wind from 153 at 0 knots gusting 6

Air temperature 16.7° C
Dewpoint 7.3° C

Last reported at 2020-Feb-28 13:08 UTC.
Time now 2020-Feb-28 13:59 UTC

Location: N 37°30' E 014°03'.
View on Google Maps.

See reports from other nearby stations

  
Tides and Currents Weather Stations Pressure Air Temp Water Temp Dewpoint Dewpoint Depression Visibility Wind Speed Wind Dir Waves Ship Positions
date/time (UTC)wind fromknots sea level pressurealtimeterstation pressurevisibilityair tempwater tempwave heightnotes
2020-Feb-28 13:08 153 0 gusting 6 16.7
2020-Feb-28 12:48 238 1 gusting 5 16.7
2020-Feb-28 12:38 212 1 gusting 5 16.1
2020-Feb-28 12:28 297 1 gusting 6 16.7
2020-Feb-28 12:18 111 2 gusting 7 16.7
2020-Feb-28 12:08 338 0 gusting 5 16.7
2020-Feb-28 11:58 013 2 gusting 7 16.1
2020-Feb-28 11:48 041 0 gusting 7 16.1
2020-Feb-28 11:38 255 0 gusting 5 15.6
2020-Feb-28 11:28 219 1 gusting 6 15.0
2020-Feb-28 11:18 205 1 gusting 5 15.0
2020-Feb-28 11:08 290 1 gusting 6 15.0
2020-Feb-28 10:58 150 2 gusting 8 15.0
2020-Feb-28 10:48 014 1 gusting 5 15.0
2020-Feb-28 10:38 309 0 gusting 6 14.4
2020-Feb-28 10:28 137 2 gusting 6 14.4
2020-Feb-28 10:18 208 0 gusting 4 14.4
2020-Feb-28 10:08 046 0 gusting 6 13.3
2020-Feb-28 09:58 307 0 gusting 7 13.3
2020-Feb-28 09:48 304 0 gusting 5 13.9
2020-Feb-28 09:38 037 0 gusting 7 13.9
2020-Feb-28 09:28 300 2 gusting 10 13.9
2020-Feb-28 09:18 278 2 gusting 12 13.3
2020-Feb-28 09:08 264 1 gusting 6 13.3
2020-Feb-28 08:58 300 0 gusting 6 12.8
2020-Feb-28 08:48 161 0 gusting 5 12.2
2020-Feb-28 08:38 253 0 gusting 6 11.7
2020-Feb-28 08:28 174 11.1
2020-Feb-28 08:18 295 0 gusting 5 11.1
2020-Feb-28 08:08 248 1 gusting 5 10.6
2020-Feb-28 07:58 264 0 gusting 6 10.6
2020-Feb-28 07:48 259 0 gusting 6 10.6
2020-Feb-28 07:38 235 1 gusting 6 10.6
2020-Feb-28 07:28 247 0 gusting 7 10.0
2020-Feb-28 07:18 238 0 gusting 6 10.0
2020-Feb-28 07:08 182 1 gusting 6 9.4
2020-Feb-28 06:58 041 2 gusting 8 9.4
2020-Feb-28 06:48 321 1 gusting 6 8.9
2020-Feb-28 06:38 131 0 gusting 4 8.9
2020-Feb-28 06:28 298 0 gusting 5 8.9
2020-Feb-28 06:18 357 0 gusting 5 8.9
2020-Feb-28 06:08 302 1 gusting 4 8.9
2020-Feb-28 05:58 214 0 gusting 2 8.9
2020-Feb-28 05:48 319 8.9
2020-Feb-28 05:38 265 8.9
2020-Feb-28 05:28 234 0 gusting 2 8.9
2020-Feb-28 05:18 299 8.3
2020-Feb-28 05:08 235 0 gusting 6 8.3
2020-Feb-28 04:58 271 0 gusting 2 8.3
2020-Feb-28 04:48 239 0 gusting 4 8.3
2020-Feb-28 04:38 320 0 gusting 2 8.3
2020-Feb-28 04:28 315 0 gusting 2 8.3
2020-Feb-28 04:18 269 0 gusting 6 8.3
2020-Feb-28 04:08 295 0 gusting 2 7.8
2020-Feb-28 03:58 301 0 gusting 2 7.8
2020-Feb-28 03:48 342 0 gusting 2 7.8
2020-Feb-28 03:38 160 7.8
2020-Feb-28 03:28 265 0 gusting 2 7.8
2020-Feb-28 03:18 319 0 gusting 4 7.8
2020-Feb-28 03:08 332 0 gusting 6 7.8
2020-Feb-28 02:58 049 8.3
2020-Feb-28 02:48 273 0 gusting 6 8.3
2020-Feb-28 02:38 293 0 gusting 4 8.3
2020-Feb-28 02:28 329 7.8
2020-Feb-28 02:18 302 0 gusting 5 7.8
2020-Feb-28 02:08 330 0 gusting 5 7.8
2020-Feb-28 01:58 321 0 gusting 4 8.3
2020-Feb-28 01:48 7.8
2020-Feb-28 01:38 001 7.8
2020-Feb-28 01:28 313 0 gusting 4 7.8
2020-Feb-28 01:18 230 0 gusting 2 7.8
2020-Feb-28 01:08 226 1 gusting 6 7.8
2020-Feb-28 00:58 221 0 gusting 4 7.8
2020-Feb-28 00:48 325 7.8
2020-Feb-28 00:38 265 1 gusting 6 7.2
2020-Feb-28 00:28 243 0 gusting 4 7.2
2020-Feb-28 00:18 239 0 gusting 1 7.2
2020-Feb-28 00:08 274 7.8
2020-Feb-27 23:58 297 0 gusting 2 7.2
2020-Feb-27 23:48 263 7.2
2020-Feb-27 23:38 293 7.2
2020-Feb-27 23:28 252 7.2
2020-Feb-27 23:18 253 7.2
2020-Feb-27 23:09 267 7.8
2020-Feb-27 22:58 252 7.8
2020-Feb-27 22:48 266 7.2
2020-Feb-27 22:38 266 7.2
2020-Feb-27 22:28 314 7.2
2020-Feb-27 22:18 047 7.2
2020-Feb-27 22:08 251 7.2
2020-Feb-27 21:58 258 7.2
2020-Feb-27 21:48 257 7.2
2020-Feb-27 21:38 060 7.8
2020-Feb-27 21:28 302 7.2
2020-Feb-27 21:18 260 7.2
2020-Feb-27 21:08 251 7.2
2020-Feb-27 20:58 280 7.2
2020-Feb-27 20:48 243 7.2
2020-Feb-27 20:38 281 7.2
2020-Feb-27 20:28 257 7.2
2020-Feb-27 20:18 271 7.2
2020-Feb-27 20:08 273 7.2
2020-Feb-27 19:58 257 7.2
2020-Feb-27 19:48 065 7.2
2020-Feb-27 19:38 070 7.2
2020-Feb-27 19:28 070 7.2
2020-Feb-27 19:18 058 7.2
2020-Feb-27 19:08 048 7.2
2020-Feb-27 18:58 078 7.2
2020-Feb-27 18:48 159 7.8
2020-Feb-27 18:38 269 7.8
2020-Feb-27 18:28 179 7.8
2020-Feb-27 18:18 271 7.8
2020-Feb-27 18:08 065 8.3
2020-Feb-27 17:58 124 8.3
2020-Feb-27 17:48 066 8.3
2020-Feb-27 17:38 115 8.3
2020-Feb-27 17:28 136 8.9
2020-Feb-27 17:18 250 8.9
2020-Feb-27 17:08 137 9.4
2020-Feb-27 16:58 085 9.4
2020-Feb-27 16:48 273 10.0
2020-Feb-27 16:38 297 10.0
2020-Feb-27 16:28 164 10.6
2020-Feb-27 16:18 259 10.6
2020-Feb-27 16:08 259 10.6
2020-Feb-27 15:58 098 0 gusting 2 11.1
2020-Feb-27 15:48 094 0 gusting 2 11.7
2020-Feb-27 15:38 104 1 gusting 5 12.2
2020-Feb-27 15:28 076 0 gusting 5 12.8
2020-Feb-27 15:18 035 12.2
2020-Feb-27 15:08 058 1 gusting 4 12.8
2020-Feb-27 14:58 248 0 gusting 2 12.8
2020-Feb-27 14:48 142 0 gusting 4 12.8
2020-Feb-27 14:38 342 0 gusting 2 12.8
2020-Feb-27 14:28 098 1 gusting 5 12.2
2020-Feb-27 14:18 013 0 gusting 6 12.8
2020-Feb-27 14:08 089 0 gusting 2 13.3
2020-Feb-27 13:58 351 1 gusting 4 12.8
2020-Feb-27 13:48 116 0 gusting 5 12.2
2020-Feb-27 13:38 058 1 gusting 4 12.8
2020-Feb-27 13:28 101 1 gusting 4 12.8
2020-Feb-27 13:18 244 0 gusting 6 12.2
2020-Feb-27 13:08 291 1 gusting 6 12.8
2020-Feb-27 12:58 006 0 gusting 6 12.8
2020-Feb-27 12:48 122 0 gusting 10 12.2
2020-Feb-27 12:38 065 2 gusting 7 12.8
2020-Feb-27 12:28 079 1 gusting 6 12.2
2020-Feb-27 12:18 171 1 gusting 7 12.2
2020-Feb-27 12:08 134 2 gusting 8 12.2
2020-Feb-27 11:58 169 0 gusting 6 12.2
2020-Feb-27 11:48 103 1 gusting 8 12.2
2020-Feb-27 11:38 080 0 gusting 5 12.2
2020-Feb-27 11:28 139 2 gusting 6 11.7
2020-Feb-27 11:18 075 1 gusting 4 12.2
2020-Feb-27 11:08 049 1 gusting 5 12.2
2020-Feb-27 10:58 086 1 gusting 6 11.7
2020-Feb-27 10:48 077 3 gusting 10 11.7
2020-Feb-27 10:38 314 1 gusting 6 11.7
2020-Feb-27 10:28 080 1 gusting 6 11.7
2020-Feb-27 10:18 247 1 gusting 4 11.7
2020-Feb-27 10:08 340 1 gusting 6 11.7
2020-Feb-27 09:58 012 1 gusting 6 11.1
2020-Feb-27 09:48 077 1 gusting 6 11.1
2020-Feb-27 09:38 060 1 gusting 7 11.1
2020-Feb-27 09:28 061 1 gusting 8 11.1
2020-Feb-27 09:18 070 1 gusting 10 10.6
2020-Feb-27 09:08 160 4 gusting 8 10.6
2020-Feb-27 08:58 067 4 gusting 8 10.6
2020-Feb-27 08:48 291 4 gusting 11 10.0
2020-Feb-27 08:38 078 2 gusting 6 10.0
2020-Feb-27 08:28 040 4 gusting 11 10.0
2020-Feb-27 08:18 060 4 gusting 11 10.0
2020-Feb-27 08:08 024 5 gusting 11 10.0
2020-Feb-27 07:58 219 0 gusting 6 9.4
2020-Feb-27 07:48 126 2 gusting 8 9.4
2020-Feb-27 07:38 140 1 gusting 5 9.4
2020-Feb-27 07:28 182 1 gusting 6 9.4
2020-Feb-27 07:18 037 1 gusting 5 8.9
2020-Feb-27 07:08 124 1 gusting 4 8.9
2020-Feb-27 06:58 077 0 gusting 4 8.9
2020-Feb-27 06:48 075 1 gusting 4 8.3
2020-Feb-27 06:38 109 0 gusting 2 7.8
2020-Feb-27 06:28 027 0 gusting 2 7.8
2020-Feb-27 06:18 276 7.2
2020-Feb-27 06:08 281 7.2
2020-Feb-27 05:58 090 7.2
2020-Feb-27 05:48 216 7.2
2020-Feb-27 05:38 257 0 gusting 1 7.2
2020-Feb-27 05:28 231 7.2
2020-Feb-27 05:18 034 7.2
2020-Feb-27 05:08 255 7.8
2020-Feb-27 04:58 277 0 gusting 2 7.8
2020-Feb-27 04:48 281 1 gusting 6 7.2
2020-Feb-27 04:38 158 7.2
2020-Feb-27 04:28 226 7.8
2020-Feb-27 04:18 042 0 gusting 2 7.8
2020-Feb-27 04:08 254 0 gusting 6 7.8
2020-Feb-27 03:58 261 0 gusting 5 7.8
2020-Feb-27 03:48 303 0 gusting 2 7.8
2020-Feb-27 03:38 301 7.8
2020-Feb-27 03:28 310 7.8
2020-Feb-27 03:18 231 7.8
2020-Feb-27 03:08 053 0 gusting 2 7.8
2020-Feb-27 02:58 253 7.2
2020-Feb-27 02:48 262 7.2
2020-Feb-27 02:38 242 7.2
2020-Feb-27 02:28 278 7.8
2020-Feb-27 02:18 250 7.8
2020-Feb-27 02:08 252 7.8
2020-Feb-27 01:58 277 0 gusting 1 7.8
2020-Feb-27 01:48 269 0 gusting 2 7.8
2020-Feb-27 01:38 235 8.3
2020-Feb-27 01:28 224 8.3
2020-Feb-27 01:18 264 8.3
2020-Feb-27 01:08 253 8.3
2020-Feb-27 00:58 217 8.3
2020-Feb-27 00:48 269 8.9
2020-Feb-27 00:38 255 8.9
2020-Feb-27 00:28 217 0 gusting 2 8.9
2020-Feb-27 00:18 020 0 gusting 2 8.9
2020-Feb-27 00:08 221 8.9
2020-Feb-26 23:58 322 0 gusting 2 8.9
2020-Feb-26 23:48 274 8.9
2020-Feb-26 23:38 228 8.9
2020-Feb-26 23:28 233 0 gusting 2 8.9
2020-Feb-26 23:18 258 8.9
2020-Feb-26 23:09 307 0 gusting 2 9.4
2020-Feb-26 22:58 257 9.4
2020-Feb-26 22:48 245 9.4
2020-Feb-26 22:38 220 0 gusting 4 9.4
2020-Feb-26 22:28 296 0 gusting 4 9.4
2020-Feb-26 22:18 300 0 gusting 2 9.4
2020-Feb-26 22:08 304 0 gusting 2 9.4
2020-Feb-26 21:58 311 9.4
2020-Feb-26 21:48 311 9.4
2020-Feb-26 21:38 248 9.4
2020-Feb-26 21:28 304 1 gusting 4 9.4
2020-Feb-26 21:18 252 0 gusting 4 9.4
2020-Feb-26 20:58 227 10.0
2020-Feb-26 20:48 281 0 gusting 2 10.0
2020-Feb-26 20:38 296 10.0
2020-Feb-26 20:28 299 0 gusting 2 10.0
2020-Feb-26 20:18 321 10.0
2020-Feb-26 20:08 258 10.0
2020-Feb-26 19:58 238 10.0
2020-Feb-26 19:48 172 10.0
2020-Feb-26 19:38 242 10.0
2020-Feb-26 19:28 193 0 gusting 2 10.6
2020-Feb-26 19:18 295 10.6
2020-Feb-26 19:08 278 10.6
2020-Feb-26 18:58 243 0 gusting 4 11.1
2020-Feb-26 18:48 250 11.1
2020-Feb-26 18:38 127 11.1
2020-Feb-26 18:28 343 1 gusting 7 11.1
2020-Feb-26 18:18 249 11.1
2020-Feb-26 18:08 257 0 gusting 2 11.1
2020-Feb-26 17:58 169 11.7
2020-Feb-26 17:48 236 11.7
2020-Feb-26 17:38 117 11.7
2020-Feb-26 17:28 071 11.7
2020-Feb-26 17:18 249 11.7
2020-Feb-26 17:08 255 12.2
2020-Feb-26 16:58 099 12.2
2020-Feb-26 16:48 116 12.8
2020-Feb-26 16:38 086 0 gusting 2 12.8
2020-Feb-26 16:28 026 0 gusting 5 13.3
2020-Feb-26 16:18 020 1 gusting 5 13.3
2020-Feb-26 16:08 051 0 gusting 2 13.9
2020-Feb-26 15:58 119 0 gusting 4 14.4
2020-Feb-26 15:48 272 0 gusting 4 14.4
2020-Feb-26 15:38 270 0 gusting 4 15.0
2020-Feb-26 15:28 073 1 gusting 4 15.0
2020-Feb-26 15:18 069 0 gusting 2 15.6
2020-Feb-26 15:08 108 15.6
2020-Feb-26 14:58 039 0 gusting 6 15.6
2020-Feb-26 14:48 065 0 gusting 4 16.1
2020-Feb-26 14:38 285 0 gusting 4 16.1
2020-Feb-26 14:28 080 16.1
2020-Feb-26 14:18 057 0 gusting 5 16.1
2020-Feb-26 14:08 020 0 gusting 2 16.1
2020-Feb-26 13:58 060 0 gusting 4 16.1
2020-Feb-26 13:48 049 2 gusting 4 16.1
2020-Feb-26 13:38 051 0 gusting 4 15.6
2020-Feb-26 13:28 195 0 gusting 6 15.0
2020-Feb-26 13:18 029 1 gusting 5 15.0
2020-Feb-26 13:08 082 15.0